Location: Jaite
(41.2884°N, 81.5737°W)
Time: 08:26:39
(UTC+00:00)

Cosmos 676 Rocket - Pass Details

Date: 15 November 2025
Orbit: 750 x 778 km, 74.0° (Epoch: 13 December)

Event Time Altitude Azimuth Distance (km) Brightness Sun altitude
Exits shadow 10:15:44 13° 347° (NNW) 2,088 6.1 -22.4°
Maximum altitude 10:20:22 66° 69° (ENE) 828 4.3 -21.5°
Drops below altitude 10° 10:25:29 10° 151° (SSE) 2,273 6.9 -20.5°
Sets 10:27:51 0° 154° (SSE) 3,191 7.7 -20.1°
